July 8th
(Preview)
July
8
977
Meteorites http://astronomy.activeboard.com/t43788083/berlanguillas-meteorite/
Asteroid 2015 MO89
(Preview)
Asteroids 2015
0
517
The 52 - 120 metre wide asteroid 2015 MO89 will make a close pass (20.2 LD, 0.0518 AU) travelling at 8.30 km/second, to the Earth-Moon system on the 8th July 2015 @ 10:56 UT ±00:01. See more The Lunar Distance (LD), the distance between Earth and the Moon, equals 384,401 km, (or 0.00256 AU).
Asteroid 2015 KL122
(Preview)
Asteroids 2015
0
288
The 97 - 220 metre wide asteroid 2015 KL122 will make a close pass (62.3 LD, 0.1600 AU) travelling at 5.56 km/second, to the Earth-Moon system on the 8th July 2015 @ 07:34 UT ±00:01. See more The Lunar Distance (LD), the distance between Earth and the Moon, equals 384,401 km, (or 0.00256 AU).
Asteroid (5190) Fry (1990 UR2)
(Preview)
Asteroids 2015
0
918
Asteroid 5190 (1990 UR2) has been named after actor Stephen Fry.
Sun 06.07.15
(Preview)
Solar 2015
1
406
Overexposed white-light photomosaic.
July 7th
(Preview)
July
8
1197
Meteorites http://astronomy.activeboard.com/t43769030/ankober-meteorite/
Nebel rocket
(Preview)
Missile
0
1399
July 7, 1930, Rudolf Nebel and Hermann Oberth jointly achieved controlled burn with their cone nozzle for a rocket. S ee more
Centaur (944) Hidalgo
(Preview)
Asteroids 2014
1
3739
Centaur (944) Hidalgo is at Opposition (7.852 AU) on the 23rd June 2014 Ephemeris Date TT R. A. (2000) Decl. Delta r Elong. Phase Mag
2014 06 20 18 27 29.8 -69 10 14 7.8598 8.5964 134.0 4.9 20.3
2014 06 21 18 26 25.0 -69 11 29 7.8569 8.5943 134.0 4.9 20.3
2014 06 22 18 25 19.8 -69 12 36 7.8541 8.5922 134.1 4.9 2...
Asteroid 2015 JY1
(Preview)
Asteroids 2015
1
406
Orbital elements:
2015 JY1 PHA, Earth MOID = 0.0396 AU
Epoch 2015 June 27.0 TT = JDT 2457200.5 MPC
M 356.09651 (2000.0) P Q
n 0.32116374 Peri. 16.73863 +0.25199421 +0.95633388
a 2.1117948 Node 268.04507 -0.90398327 +0.17800966
e 0.5044277 Incl. 8.52004 -0.34541738 +0.23181475
P 3.07 H 20...
Asteroid 2005 VN5
(Preview)
Asteroids 2015
0
292
The 11 - 24 metre wide asteroid 2005 VN5 will make a close pass (12.6 LD, 0.0323 AU) travelling at 6.83 km/second, to the Earth-Moon system on the 7th July 2015 @ 16:43 UT ±00:13. See more The Lunar Distance (LD), the distance between Earth and the Moon, equals 384,401 km, (or 0.00256 AU).
Asteroid 2015 MY53
(Preview)
Asteroids 2015
0
629
The 23 - 52 metre wide asteroid 2015 MY53 will make a close pass (23.2 LD, 0.0597 AU) travelling at 5.90 km/second, to the Earth-Moon system on the 7th July 2015 @ 13:23 UT ±00:05. See more The Lunar Distance (LD), the distance between Earth and the Moon, equals 384,401 km, (or 0.00256 AU).
Asteroid 2015 MO116
(Preview)
Asteroids 2015
0
459
The 42 - 93 metre wide asteroid 2015 MO116 will make a close pass (4.9 LD, 0.0127 AU) travelling at 9.34 km/second, to the Earth-Moon system on the 7th July 2015 @ 19:39 UT ±01:18. See more The Lunar Distance (LD), the distance between Earth and the Moon, equals 384,401 km, (or 0.00256 AU).
Progress 60P
(Preview)
Space missions
1
705
Russian Supply Ship Heads to ISS Spoiler The unpiloted Russian ISS Progress 60 cargo craft launched to the International Space Station from the Baikonur Cosmodrome in Kazakhstan July 3, filled with more than three tons of...
NGC 2953
(Preview)
Stars
1
759
NGC 2953 is a possible star in the constellation Leo, previously considered a lost or nonexistent object. The object location is close (separation ~05') to the magnitude +12.3 galaxy NGC 2954. NGC 2953 was discovered by British astronomer John Herschel using a 47.5 cm (18.7 inch) f/13 speculum ref...
Comet P/1998 VS24 (LINEAR)
(Preview)
Solar System
1
985
Comet P/1998 VS24 (LINEAR) makes its closest approach to the Earth (3.286 AU) on the 29th January, 2010. See more Ephemeris
«First < 1
312 313 314 315 316
2461 > Last» | Page
